sat.trackr.live / text

‹ back to catalog

STARLINK-2700

NORAD 48431 · 2021-040D

PAYLOAD ACTIVE UNKNOWN

§ Identity

Operator
Country
US
Launch date
2021-05-09
Launch site
AFETR
Launch vehicle
Mass (kg)
RCS (m²)

Purposes: comms

External: N2YO · Heavens-Above · Gunter

§ Orbital elements

Epoch: 2026-09-12T16:43:11.744544Z

Period
94.01 min
Inclination
53.1608°
Eccentricity
0.0001247
Mean motion
15.31695262 rev/d
Perigee alt
469.9 km
Apogee alt
471.6 km
Semi-major
6,848.9 km
B*
6.9885e-5
RAAN
2.5163°
Arg perigee
78.1961°
Mean anomaly
281.9181°
Rev number
29,568

§ Raw data

STARLINK-27001 48431U 21040D   26255.69666371  .00001804  00000+0  69885-4 0  99932 48431  53.1608   2.5163 0001247  78.1961 281.9181 15.31695262295688

JSON: /api/v1/satellites/48431 · /tle

For live sub-satellite position, see the globe view (requires WebGL).

§ Visibility from observer

Set your observer location to see the next 7 days of passes ≥ 10°. The values pass through the URL so the page stays shareable.

No JS? Fill the form by hand. The geolocation button needs JavaScript.